FW6216 Weather Reports


Display with metric or nautical units.
time (UTC)temp
F
wind
direction
speed
MPH
gust
MPH
rain 1hr
in
rain 24hr
in
rain mn
in
humidity
%
barometer
mb
20260509053142 53 274 2.0 10.0 0.00 0.00 0.00 63 1024.0
20260509051535 55 310 2.0 9.0 0.00 0.00 0.00 60 1023.8
20260509044536 56 334 2.0 9.0 0.00 0.00 0.00 59 1023.6
20260509043036 56 298 3.0 11.0 0.00 0.00 0.00 58 1023.4
20260509041536 57 282 6.0 18.0 0.00 0.00 0.00 56 1023.0
20260509040034 58 281 11.0 20.0 0.00 0.00 0.00 54 1022.6
20260509034607 58 279 11.0 24.0 0.00 0.00 0.00 53 1022.3
20260509033032 59 276 13.0 29.0 0.00 0.00 0.00 51 1021.8
20260509030032 60 290 11.0 22.0 0.00 0.00 0.00 48 1021.4
20260509024531 61 307 11.0 21.0 0.00 0.00 0.00 47 1021.2
20260509023145 62 313 11.0 21.0 0.00 0.00 0.00 45 1021.2
20260509021534 63 311 9.0 23.0 0.00 0.00 0.00 43 1021.1
20260509020032 64 313 10.0 20.0 0.00 0.00 0.00 41 1020.9
20260509014539 65 313 10.0 24.0 0.00 0.00 0.00 40 1020.9
20260509013119 66 296 8.0 18.0 0.00 0.00 0.00 38 1020.8
20260509011534 67 289 13.0 24.0 0.00 0.00 0.00 37 1020.5
20260509010034 68 286 15.0 28.0 0.00 0.00 0.00 37 1020.1
20260509004535 68 290 12.0 26.0 0.00 0.00 0.00 36 1020.2
20260509003110 69 287 14.0 26.0 0.00 0.00 0.00 36 1019.9
20260509001531 69 299 9.0 24.0 0.00 0.00 0.00 37 1020.2
20260508234534 69 346 9.0 18.0 0.00 0.00 0.00 38 1020.3
20260508233033 69 348 8.0 16.0 0.00 0.00 0.00 38 1020.3
20260508230030 69 355 9.0 19.0 0.00 0.00 0.00 36 1020.3
20260508224533 71 349 10.0 16.0 0.00 0.00 0.00 35 1020.2
20260508223034 70 360 7.0 13.0 0.00 0.00 0.00 36 1020.2
20260508221609 69 28 7.0 14.0 0.00 0.00 0.00 36 1020.3
20260508214607 69 3 8.0 14.0 0.00 0.00 0.00 36 1020.5
20260508213034 69 12 8.0 15.0 0.00 0.00 0.00 36 1020.5
20260508210030 68 33 4.0 11.0 0.00 0.00 0.00 37 1020.5
20260508204535 68 57 6.0 13.0 0.00 0.00 0.00 37 1020.6
20260508203031 68 45 6.0 12.0 0.00 0.00 0.00 40 1020.7
20260508200030 67 61 6.0 12.0 0.00 0.00 0.00 42 1020.8
20260508193028 63 65 7.0 14.0 0.00 0.00 0.00 48 1020.8
20260508191529 63 67 8.0 14.0 0.00 0.00 0.00 49 1020.7
20260508190030 64 53 7.0 12.0 0.00 0.00 0.00 50 1020.7
20260508184534 61 53 5.0 13.0 0.00 0.00 0.00 56 1020.6
20260508183030 59 38 6.0 10.0 0.00 0.00 0.00 57 1020.5
20260508181538 59 43 4.0 11.0 0.00 0.00 0.00 56 1020.7
20260508180034 59 42 5.0 9.0 0.00 0.00 0.00 55 1020.3
20260508174531 60 54 5.0 9.0 0.00 0.00 0.00 54 1020.1
20260508173107 61 27 4.0 8.0 0.00 0.00 0.00 53 1020.0
20260508171619 62 46 4.0 10.0 0.00 0.00 0.00 52 1020.0
20260508170035 62 63 4.0 9.0 0.00 0.00 0.00 50 1020.1
20260508164535 64 58 3.0 8.0 0.00 0.00 0.00 49 1020.1
20260508163031 62 30 3.0 8.0 0.00 0.00 0.00 52 1020.2
20260508161531 60 51 3.0 7.0 0.00 0.00 0.00 55 1020.3
20260508160034 58 51 3.0 8.0 0.00 0.00 0.00 57 1020.2
20260508154532 58 42 3.0 7.0 0.00 0.00 0.00 59 1020.1
20260508153152 57 52 1.0 5.0 0.00 0.00 0.00 61 1020.1
20260508151534 52 204 0.0 3.0 0.00 0.00 0.00 67 1020.0
20260508150030 50 242 0.0 2.0 0.00 0.00 0.00 68 1019.8
20260508143108 46 210 0.0 2.0 0.00 0.00 0.00 69 1019.4
20260508140031 44 223 2.0 6.0 0.00 0.00 0.00 68 1019.4
20260508134530 44 243 3.0 6.0 0.00 0.00 0.00 69 1019.2
20260508133111 43 200 2.0 5.0 0.00 0.00 0.00 70 1019.1
20260508131610 42 215 3.0 4.0 0.00 0.00 0.00 70 1019.0
20260508130109 41 185 2.0 4.0 0.00 0.00 0.00 70 1018.9
20260508124610 41 247 0.0 4.0 0.00 0.00 0.00 70 1018.7
20260508123151 41 225 0.0 2.0 0.00 0.00 0.00 69 1018.7
20260508121531 41 179 0.0 3.0 0.00 0.00 0.00 69 1018.8
20260508120036 41 237 0.0 4.0 0.00 0.00 0.00 67 1018.8
20260508114531 41 266 0.0 4.0 0.00 0.00 0.00 66 1018.7
20260508113031 42 270 0.0 3.0 0.00 0.00 0.00 66 1018.7
20260508111532 41 220 1.0 5.0 0.00 0.00 0.00 66 1018.6
20260508104534 42 224 0.0 4.0 0.00 0.00 0.00 64 1018.6
20260508103031 42 228 1.0 4.0 0.00 0.00 0.00 62 1018.6
20260508094610 42 181 3.0 6.0 0.00 0.00 0.00 61 1018.6
20260508093033 43 229 3.0 7.0 0.00 0.00 0.00 59 1018.6
20260508090030 43 206 1.0 3.0 0.00 0.00 0.00 58 1018.4
20260508084532 44 211 3.0 5.0 0.00 0.00 0.00 57 1018.4
20260508083108 44 231 4.0 6.0 0.00 0.00 0.00 56 1018.4
20260508081529 44 217 2.0 7.0 0.00 0.00 0.00 55 1018.4
20260508080031 44 206 2.0 5.0 0.00 0.00 0.00 55 1018.5
20260508074535 43 224 3.0 4.0 0.00 0.00 0.00 56 1018.5
20260508073038 43 244 1.0 4.0 0.00 0.00 0.00 54 1018.3
20260508070035 45 240 3.0 5.0 0.00 0.00 0.00 51 1018.3
20260508064606 46 221 2.0 5.0 0.00 0.00 0.00 50 1018.3
20260508063030 47 226 1.0 3.0 0.00 0.00 0.00 47 1018.3
20260508061531 49 215 2.0 4.0 0.00 0.00 0.00 45 1018.3
20260508060110 49 173 3.0 5.0 0.00 0.00 0.00 43 1018.3
20260508054654 50 166 3.0 5.0 0.00 0.00 0.00 42 1018.2